Weather History for Opa Locka, FL

Change the Weather History Date:

Monday, November 26, 2012

  Actual Average Record
Temperature  
Mean Temperature 68 °F -  
Max Temperature 79 °F 80 °F 87 °F (1979)
Min Temperature 57 °F 64 °F 37 °F (1950)
Cooling Degree Days 3    
Growing Degree Days 18 (Base 50)    
Moisture  
Dew Point 58 °F    
Average Humidity 71    
Maximum Humidity 90    
Minimum Humidity 50    
Precipitation  
Precipitation 0.00 in - - ()
Sea Level Pressure  
Sea Level Pressure 30.16 in    
Wind  
Wind Speed 2 mph (ESE)    
Max Wind Speed 10 mph    
Max Gust Speed -    
Visibility 10 miles    
Events      
Averages and records for this station are not official NWS values.
T = Trace of Precipitation, MM = Missing Value Source: NWS Daily Summary

Daily Weather History Graph

Daily Weather History Graph

Search for Another Location

Airport:

Trip Planner

Search our weather history database for the weather conditions in past years. The results will help you decide how hot, cold, wet, or windy it might be!

Date:

Astronomy

Nov. 26, 2012 Rise Set
Actual Time 6:47 AM EST 5:29 PM EST
Civil Twilight 6:22 AM EST 5:54 PM EST
Nautical Twilight 5:54 AM EST 6:22 PM EST
Astronomical Twilight 5:26 AM EST 6:50 PM EST
Moon 4:16 PM EST (11/26) 5:02 AM EST (11/26)
Length of Visible Light 11h 31m
Length of Day
10h 41m
Waxing Gibbous, 97% of the Moon is Illuminated
Nov 26
Waxing Gibbous
Nov 28
Full
Dec 6
Last Quarter
Dec 13
New
Dec 20
First Quarter

Hourly Weather History & Observations

Time (EST) Temp. Dew Point Humidity Pressure Visibility Wind Dir Wind Speed Gust Speed Precip Events Conditions
12:53 AM 59.0 °F 55.0 °F 87% 30.14 in 10.0 mi Calm Calm - N/A   Clear
1:53 AM 57.9 °F 55.0 °F 90% 30.13 in 10.0 mi Calm Calm - N/A   Partly Cloudy
2:53 AM 59.0 °F 55.0 °F 87% 30.12 in 10.0 mi Calm Calm - N/A   Clear
3:53 AM 57.9 °F 55.0 °F 90% 30.12 in 10.0 mi Calm Calm - N/A   Scattered Clouds
4:53 AM 57.9 °F 55.0 °F 90% 30.13 in 10.0 mi Calm Calm - N/A   Partly Cloudy
5:53 AM 57.9 °F 54.0 °F 87% 30.14 in 10.0 mi Calm Calm - N/A   Scattered Clouds
6:53 AM 57.9 °F 54.0 °F 87% 30.17 in 10.0 mi Calm Calm - N/A   Clear
7:53 AM 64.0 °F 57.9 °F 80% 30.17 in 10.0 mi Calm Calm - N/A   Clear
8:53 AM 72.0 °F 59.0 °F 64% 30.19 in 10.0 mi Calm Calm - N/A   Clear
9:53 AM 75.0 °F 59.0 °F 57% 30.20 in 10.0 mi Variable 3.5 mph - N/A   Partly Cloudy
10:53 AM 79.0 °F 59.0 °F 50% 30.20 in 10.0 mi ESE 9.2 mph - N/A   Scattered Clouds
11:53 AM 77.0 °F 57.9 °F 52% 30.19 in 10.0 mi East 3.5 mph - N/A   Mostly Cloudy
12:53 PM 79.0 °F 59.0 °F 50% 30.16 in 10.0 mi SSE 10.4 mph - N/A   Overcast
1:53 PM 79.0 °F 60.1 °F 52% 30.14 in 10.0 mi ESE 6.9 mph - N/A   Clear
2:53 PM 78.1 °F 59.0 °F 52% 30.14 in 10.0 mi East 8.1 mph - N/A   Clear
3:53 PM 77.0 °F 57.9 °F 52% 30.14 in 10.0 mi ESE 10.4 mph - N/A   Clear
4:53 PM 75.0 °F 57.9 °F 55% 30.14 in 10.0 mi East 10.4 mph - N/A   Clear
5:53 PM 71.1 °F 59.0 °F 66% 30.15 in 10.0 mi ESE 5.8 mph - N/A   Clear
6:53 PM 69.1 °F 59.0 °F 70% 30.17 in 10.0 mi ESE 4.6 mph - N/A   Clear
7:53 PM 66.9 °F 59.0 °F 76% 30.19 in 10.0 mi East 3.5 mph - N/A   Clear
8:53 PM 66.0 °F 59.0 °F 78% 30.20 in 10.0 mi East 3.5 mph - N/A   Clear
9:53 PM 66.0 °F 60.1 °F 81% 30.21 in 10.0 mi Calm Calm - N/A   Clear
10:53 PM 64.9 °F 60.1 °F 84% 30.20 in 10.0 mi East 3.5 mph - N/A   Mostly Cloudy
11:53 PM 68.0 °F 61.0 °F 78% 30.19 in 10.0 mi Calm Calm - N/A   Overcast